ROMMA est une association bénévole à but non lucratif. Votre soutien est indispensable : ADHERER à ROMMA ou FAIRE un DON

Chambon - (38, Isère)

Oisans (2460 m)   Longitude: 06° 10' 42" E   Latitude: 45° 01' 32" N Station partenaire n°803
 

Détail journalier du     <<     >>

Température Humidité Vent Dir Rafale Dir. rafale Neige 1 Neige 2
Heure (°C) (%) (km/h) (km/h) (cm) (cm)
01:00 0.0874S34S163217
02:00 0.18813S42SSO163217
03:00 0.98018SSO49SSO166217
04:00 1.27218S46SSO170218
05:00 1.16620S55S169220
06:00 1.06518SSE48SSE168220
07:00 1.26924SSE77SSE167219
08:00 1.86925SSE77SSE164220
09:00 1.77526S71S164219
10:00 0.0011S60S00
11:00 -0.99616NE80SSE165220
12:00 -0.7949NE49SSE167222
13:00 -1.09416SSE74SSE170224
14:00 -1.09616SSE69SSE170225
15:00 -1.4986SSE39SSE174229
16:00 -3.89542SSO112SSO185234
17:00 -2.07053SSO111SSO168238
18:00 -1.27157SSO101SSO167235
19:00 -0.66852SSO103SSO167233
20:00 0.0020SSE84SSE00
21:00 -0.14727SSE69SSE165232
22:00 0.0014SSE68SSE00
23:00 -0.44723SSE68S165231
minuit 0.25012SE43SSE165231

Graphique du 24-04-2019

 

Serveur OMMA